This is the latest recevied weather packets stored in our database for station/object WC4PEM-12. If no packets are shown the sender has not sent any weather packets the latest 10 day(s).
| Time | Temp. | Humidity | Pressure | Rain* | Wind** | Luminosity | Snow |
|---|---|---|---|---|---|---|---|
| 1777735385 | 29.44° C | 65% | 1011.2 hPa | 0 mm | - | - | - |
| 1777735307 | 29.44° C | 66% | 1011 hPa | 0 mm | - | - | - |
| 1777735085 | 29.44° C | 66% | 1011 hPa | 0 mm | - | - | - |
| 1777734827 | 28.89° C | 67% | 1011.5 hPa | 0 mm | - | - | - |
| 1777734785 | 28.89° C | 66% | 1011.4 hPa | 0 mm | - | - | - |
| 1777734485 | 28.89° C | 67% | 1011.5 hPa | 0 mm | - | - | - |
| 1777734185 | 28.89° C | 67% | 1011.3 hPa | 0 mm | - | - | - |
| 1777734140 | 27.78° C | 71% | 1011.2 hPa | 0 mm | - | - | - |
| 1777734109 | 28.89° C | 68% | 1011.4 hPa | 0 mm | - | - | - |
| 1777733885 | 28.89° C | 68% | 1011.4 hPa | 0 mm | - | - | - |
| 1777733858 | 28.33° C | 69% | 1011.3 hPa | 0 mm | - | - | - |
| 1777733585 | 28.33° C | 69% | 1011.3 hPa | 0 mm | - | - | - |
| 1777733285 | 27.78° C | 71% | 1011.2 hPa | 0 mm | - | - | - |
| 1777733046 | 27.22° C | 73% | 1011.2 hPa | 0 mm | - | - | - |
| 1777732985 | 27.78° C | 72% | 1011.3 hPa | 0 mm | - | - | - |
| 1777732685 | 27.78° C | 73% | 1011.1 hPa | 0 mm | - | - | - |
| 1777732385 | 27.22° C | 73% | 1011.2 hPa | 0 mm | - | - | - |
| 1777732085 | 27.22° C | 75% | 1011.2 hPa | 0 mm | - | - | - |
| 1777731884 | 26.11° C | 79% | 1011.1 hPa | 0 mm | - | - | - |
| 1777731785 | 27.22° C | 76% | 1011 hPa | 0 mm | - | - | - |
| 1777731485 | 27.22° C | 75% | 1011.3 hPa | 0 mm | - | - | - |
| 1777731185 | 26.67° C | 77% | 1011.2 hPa | 0 mm | - | - | - |
| 1777730885 | 26.67° C | 76% | 1011.1 hPa | 0 mm | - | - | - |
| 1777730585 | 26.11° C | 79% | 1011.1 hPa | 0 mm | - | - | - |
| 1777730288 | 26.11° C | 81% | 1011.2 hPa | 0 mm | - | - | - |
* Rain latest hour (hover to see other rain measurements)
** Current wind speed in m/s (hover to see current wind gust speed)